Location: Allisons_Woods
(35.8920°N, 81.8170°W)
Time: 13:10:07
(UTC-05:00)

Daily predictions for brighter satellites

Satellite Brightness Start Highest point End
(mag) Time Altitude Azimuth Time Altitude Azimuth Time Altitude Azimuth
CORIOLIS 4.3 18:09:14 10° SSE 18:14:35 86° W 18:19:58 10° NNW
Cosmos 1980 4.2 18:09:28 10° SSW 18:15:05 64° WNW 18:20:44 10° NNE
Abrixas 4.3 18:13:47 10° W 18:16:13 23° NNW 18:18:40 10° NNE
Cosmos 1356 Rocket 4.4 18:14:09 10° SSE 18:17:24 24° E 18:20:38 10° NE
Cosmos 1634 Rocket 4.1 18:12:29 10° N 18:18:41 87° W 18:24:50 10° S
IDEFIX/ARIANE 42P 3.4 18:14:23 10° S 18:19:28 56° W 18:24:38 10° NNW
Meteor 1-11 4.2 18:14:40 10° S 18:20:19 73° E 18:26:03 10° NNE
BREEZE-M DEB (TANK) 4.1 18:17:02 10° WNW 18:21:10 54° SW 18:28:09 10° SE
Aureole 2 Rocket 3.0 18:22:06 10° SSW 18:25:44 68° WNW 18:29:44 10° NNE
Lacrosse 5 rocket 1.3 18:22:01 10° NNW 18:25:46 55° NE 18:29:43 10° SE
H-2A ROCKET BODY 4.4 17:41:49 10° WSW 18:25:52 59° S 18:32:48 10° ESE
FREGAT/IRIS 4.5 18:24:44 10° ESE 18:26:18 13° ENE 18:27:53 10° NE
MSX 4.1 18:22:39 10° S 18:28:21 75° WSW 18:34:06 10° NNW
Coronas F rocket 3.4 18:29:06 10° ESE 18:29:10 10° ESE 18:29:10 10° ESE
BREEZE-M DEB (TANK) 2.7 18:28:21 10° WSW 18:30:55 43° NW 18:33:03 12° NE
Cosmos 1626 2.6 18:29:17 10° SSE 18:32:45 37° E 18:36:14 10° NNE
Cosmos 372 Rocket 3.9 18:28:34 10° NNW 18:33:41 86° ENE 18:38:47 10° SSE
Cosmos 2219 Rocket 4.1 18:29:12 10° WSW 18:34:00 28° WNW 18:38:49 10° N
YAOGAN 1 3.9 18:31:14 10° S 18:35:22 45° W 18:39:32 10° NNW
OTV 4 2.5 18:33:54 10° W 18:36:27 26° SSW 18:38:59 10° SSE
Cosmos 2333 Rocket 3.7 18:31:37 10° SW 18:36:43 34° WNW 18:41:51 10° N
Cosmos 304 Rocket 3.8 18:32:44 10° SSW 18:37:33 89° WNW 18:42:23 10° NNE
Timation 1 Rocket 4.4 18:31:40 10° NNW 18:37:36 57° ENE 18:43:29 10° SE
Cosmos 1707 Rocket 4.0 18:34:08 10° N 18:38:12 38° E 18:42:15 10° SSE
COSMO-SKYMED 1 2.7 18:34:53 10° N 18:39:15 82° WNW 18:43:34 10° SSW
BREEZE M DEB (TANK) 2.6 18:38:41 10° NNW 18:40:35 20° NNE 18:40:57 19° NE
USA 215 3.9 18:37:34 11° E 18:42:59 34° NNE 18:48:45 10° NNW
Cosmos 2151 4.3 18:40:02 10° SSW 18:44:00 41° W 18:47:59 10° N
CZ-4 R/B 4.3 18:42:23 10° SW 18:45:18 20° W 18:48:14 10° NW
Cosmos 1666 Rocket 3.6 18:41:36 10° S 18:45:48 52° E 18:50:03 10° NNE
Cosmos 2278 Rocket 2.9 18:43:56 10° NNW 18:49:30 57° WSW 18:55:01 10° S
Resurs 01 Rocket 2.8 18:49:19 20° ENE 18:49:43 20° ENE 18:52:59 10° NNE
Cosmos 1726 4.0 18:47:01 10° NNW 18:50:27 34° W 18:53:53 10° SSW
Cosmos 1703 3.3 18:48:25 10° S 18:52:18 82° W 18:56:13 10° N
SJ-6B 3.3 18:48:42 10° SE 18:52:31 40° ENE 18:56:23 10° N
Cosmos 1455 2.6 18:48:58 10° N 18:52:33 39° E 18:56:09 10° SSE
Tiangong 1 2.2 19:00:11 10° SSW 19:02:44 26° SE 19:02:54 26° SE
Cosmos 1900 4.2 18:58:45 10° NNW 19:03:43 71° ENE 19:08:43 10° SE
Cosmos 2237 Rocket 4.3 19:06:24 10° WSW 19:10:51 24° WNW 19:15:20 10° N
Cosmos 2369 Rocket 4.1 19:14:12 10° NNE 19:15:08 13° NNE 19:15:08 13° NNE
SL-16 R/B 3.1 19:12:47 10° SW 19:18:14 48° WNW 19:23:41 10° N
Cosmos 1470 Rocket 3.7 19:14:35 10° SSE 19:18:47 47° E 19:19:23 44° ENE
Lacrosse 4 Rocket 2.6 19:16:16 10° N 19:18:28 25° NNE 19:18:28 25° NNE
Nadezhda 4 Rocket 4.1 19:16:19 10° S 19:22:33 77° W 19:28:53 10° N
ALOS 2.3 19:18:21 10° SSE 19:22:52 52° ENE 19:27:24 10° N
Cosmos 2242 Rocket 3.4 19:20:07 10° N 19:24:32 68° E 19:28:57 10° SSE
USA 229 DEB 3.7 19:17:51 10° SSW 19:24:42 89° NW 19:29:44 20° NNE
USA 229 3.6 19:17:57 10° SSW 19:24:48 89° NW 19:29:47 21° NNE
Spot 2 Rocket 3.6 19:20:05 10° SSE 19:24:56 50° ENE 19:29:48 10° N
Cosmos 1184 Rocket 3.8 19:22:15 10° SSW 19:25:29 47° W 19:27:43 18° N
Cosmos 2026 Rocket 4.2 19:20:43 10° SSE 19:26:32 44° E 19:29:03 30° NE
Cosmos 2297 4.5 19:27:50 10° NNW 19:33:23 53° WSW 19:38:55 10° S
Cosmos 292 Rocket 3.6 19:29:16 10° S 19:34:01 77° ESE 19:35:12 50° NNE
Iridium 4 Rocket 3.0 19:30:14 10° S 19:34:49 84° W 19:38:16 16° N
Cosmos 1869 3.2 19:33:55 10° N 19:37:58 86° W 19:42:00 10° S
NOSS 3-1 (A) 4.5 19:33:58 10° S 19:37:05 25° SE 19:37:05 25° SE
Cosmos 1092 Rocket 4.2 19:37:38 10° SSW 19:43:57 73° W 19:50:18 10° N
FENGYUN 3A 3.5 19:42:42 10° SSE 19:48:03 90° WSW 19:53:27 10° NNW
Cosmos 923 Rocket 4.2 19:43:22 10° SSW 19:48:33 68° WNW 19:50:55 32° N
Meteor 2-20 4.3 19:42:48 10° S 19:48:48 62° E 19:49:31 58° ENE
Cosmos 1680 Rocket 3.5 19:50:10 10° SSW 19:55:23 79° WNW 19:56:19 60° N
Cosmos 1943 3.9 19:51:26 10° S 19:55:14 40° SSE 19:55:14 40° SSE
Lacrosse 5 rocket 4.3 20:02:47 10° W 20:04:38 13° WSW 20:06:30 10° SSW
NOSS 3-1 (C) 3.6 20:11:12 10° SSW 20:15:42 59° SSW 20:15:42 59° SSW
USA 215 3.3 20:24:57 65° S 20:25:38 70° SW 20:32:11 10° NW
Resurs 01 Rocket 3.4 20:22:00 10° SSW 20:26:52 29° WNW 20:29:57 10° NW
